User: anonymous   Login
Location: Stilling
(56.0622°N, 9.9882°E)
Time: 13:24:35
(UTC+00:00)
Language:

Cosmos 1328 Rocket - Orbit

View from above orbital plane
View from above orbital plane
View from above satellite
View from above satellite

Ground track
Ground track

The orbit data is extracted from the following two-line orbital elements,

1 12988U 81117B   20271.85108705 +.00000074 +00000-0 +58181-5 0  9991
2 12988 082.5272 028.8952 0017442 202.7549 273.9338 14.84777032076637
Epoch (UTC): 27 September 2020 20:25:33
Eccentricity: 0.0017442
inclination: 82.5272°
perigee height: 602 km
apogee height: 626 km
right ascension of ascending node: 28.8952°
argument of perigee: 202.7549°
revolutions per day: 14.84777032
mean anomaly at epoch: 273.9338°
orbit number at epoch: 7663

The dashed part of the orbit path shows where the satellite is in the earth's shadow,  

DLR